�������l�o���
Date,Time,MP-1(��Sv/h),MP-2(��Sv/h),MP-3(��Sv/h),MP-4(��Sv/h),MP-5(��Sv/h),MP-6(��Sv/h),MP-7(��Sv/h),MP-8(��Sv/h),����,����(m/s),���J
2019/10/06,00:00,0.758,1.081,0.747,1.328,0.978,0.428,0.743,0.700,���쐼,1.2,�L
2019/10/06,00:10,0.758,1.081,0.747,1.331,0.976,0.427,0.743,0.701,��,0.8,��
2019/10/06,00:20,0.759,1.081,0.746,1.328,0.975,0.428,0.743,0.701,-,CALM,��
2019/10/06,00:30,0.760,1.078,0.748,1.329,0.978,0.428,0.743,0.701,�k�k��,0.9,�L
2019/10/06,00:40,0.761,1.082,0.746,1.329,0.976,0.427,0.745,0.701,�k�k��,1.5,�L
2019/10/06,00:50,0.758,1.081,0.748,1.330,0.974,0.427,0.742,0.700,���k��,0.9,�L
2019/10/06,01:00,0.759,1.081,0.750,1.332,0.975,0.428,0.743,0.702,�k�k��,1.4,�L
2019/10/06,01:10,0.760,1.081,0.746,1.331,0.978,0.429,0.742,0.701,�k�k��,2.6,�L
2019/10/06,01:20,0.759,1.081,0.749,1.329,0.972,0.428,0.741,0.700,�k�k��,2.3,�L
2019/10/06,01:30,0.759,1.074,0.746,1.328,0.969,0.429,0.740,0.701,�k��,3.1,�L
2019/10/06,01:40,0.756,1.066,0.745,1.323,0.965,0.430,0.739,0.699,���쓌,5.4,�L
2019/10/06,01:50,0.752,1.059,0.743,1.313,0.956,0.429,0.733,0.695,���k��,7.2,�L
2019/10/06,02:00,0.747,1.054,0.740,1.307,0.952,0.429,0.733,0.694,��,3.0,�L
2019/10/06,02:10,0.747,1.049,0.740,1.303,0.950,0.429,0.731,0.692,���쓌,6.5,�L
2019/10/06,02:20,0.748,1.051,0.739,1.299,0.950,0.429,0.732,0.691,�k��,0.6,�L
2019/10/06,02:30,0.746,1.047,0.737,1.297,0.948,0.426,0.731,0.693,��,1.2,�L
2019/10/06,02:40,0.746,1.047,0.738,1.296,0.946,0.427,0.731,0.690,���k��,1.4,�L
2019/10/06,02:50,0.743,1.046,0.733,1.296,0.947,0.426,0.730,0.691,�k��,1.5,�L
2019/10/06,03:00,0.742,1.045,0.732,1.291,0.943,0.423,0.730,0.690,�k��,2.3,�L
2019/10/06,03:10,0.740,1.043,0.730,1.293,0.943,0.423,0.729,0.690,�k��,2.3,�L
2019/10/06,03:20,0.741,1.042,0.729,1.290,0.941,0.422,0.729,0.690,��,1.2,�L
2019/10/06,03:30,0.739,1.043,0.729,1.289,0.941,0.421,0.729,0.691,-,CALM,�L
2019/10/06,03:40,0.740,1.042,0.727,1.288,0.943,0.423,0.731,0.690,�k��,1.2,�L
2019/10/06,03:50,0.737,1.040,0.725,1.288,0.938,0.422,0.729,0.690,-,CALM,�L
2019/10/06,04:00,0.735,1.034,0.725,1.281,0.935,0.421,0.727,0.688,�k�k��,1.2,�L
2019/10/06,04:10,0.737,1.034,0.723,1.280,0.934,0.420,0.727,0.690,�k��,1.1,�L
2019/10/06,04:20,0.735,1.035,0.723,1.279,0.933,0.420,0.725,0.687,�k,1.1,�L
2019/10/06,04:30,0.736,1.035,0.722,1.281,0.933,0.417,0.727,0.687,�k,0.6,�L
2019/10/06,04:40,0.735,1.032,0.722,1.277,0.933,0.419,0.726,0.687,�k,0.6,�L
2019/10/06,04:50,0.733,1.029,0.721,1.277,0.930,0.419,0.728,0.686,�k��,0.6,�L
2019/10/06,05:00,0.731,1.029,0.721,1.274,0.930,0.421,0.723,0.685,�k�k��,1.5,�L
2019/10/06,05:10,0.731,1.029,0.720,1.273,0.929,0.419,0.725,0.686,�k,1.1,�L
2019/10/06,05:20,0.730,1.027,0.719,1.271,0.930,0.418,0.725,0.685,�k,1.2,�L
2019/10/06,05:30,0.729,1.026,0.718,1.271,0.929,0.416,0.727,0.684,�k,2.3,�L
2019/10/06,05:40,0.729,1.024,0.718,1.270,0.927,0.419,0.726,0.686,�k�k��,2.6,�L
2019/10/06,05:50,0.729,1.025,0.717,1.267,0.924,0.417,0.724,0.685,�k,3.7,�L
2019/10/06,06:00,0.728,1.024,0.715,1.268,0.926,0.417,0.725,0.685,�k�k��,3.5,�L
2019/10/06,06:10,0.728,1.023,0.715,1.270,0.925,0.418,0.723,0.684,�k�k��,3.3,�L
2019/10/06,06:20,0.729,1.023,0.715,1.269,0.929,0.416,0.724,0.684,�k�k��,2.8,�L
2019/10/06,06:30,0.727,1.023,0.714,1.268,0.924,0.417,0.724,0.684,�k�k��,2.6,�L
2019/10/06,06:40,0.728,1.022,0.717,1.267,0.926,0.417,0.722,0.682,�k,2.6,�L
2019/10/06,06:50,0.729,1.022,0.716,1.265,0.925,0.416,0.724,0.684,�k,3.2,�L
2019/10/06,07:00,0.727,1.015,0.714,1.263,0.921,0.419,0.722,0.683,�k�k��,3.0,�L
2019/10/06,07:10,0.721,1.011,0.712,1.253,0.911,0.417,0.717,0.681,�k,3.7,�L
2019/10/06,07:20,0.724,1.010,0.712,1.253,0.915,0.418,0.717,0.679,�k,7.1,�L
2019/10/06,07:30,0.723,1.011,0.713,1.257,0.919,0.420,0.718,0.681,�k,7.0,�L
2019/10/06,07:40,0.725,1.015,0.716,1.260,0.922,0.421,0.719,0.683,�k�k��,8.0,�L
2019/10/06,07:50,0.726,1.013,0.714,1.260,0.920,0.421,0.720,0.681,�k�k��,9.3,�L
2019/10/06,08:00,0.726,1.015,0.713,1.259,0.922,0.421,0.721,0.682,�k�k��,9.0,�L
2019/10/06,08:10,0.727,1.014,0.714,1.260,0.922,0.420,0.721,0.682,�k�k��,7.2,�L
2019/10/06,08:20,0.728,1.014,0.711,1.261,0.920,0.421,0.720,0.682,�k�k��,8.1,�L
2019/10/06,08:30,0.728,1.014,0.714,1.262,0.920,0.419,0.721,0.682,�k�k��,9.1,�L
2019/10/06,08:40,0.727,1.015,0.713,1.263,0.920,0.418,0.721,0.682,�k�k��,8.4,�L
2019/10/06,08:50,0.726,1.014,0.714,1.258,0.917,0.417,0.720,0.680,�k�k��,8.0,�L
2019/10/06,09:00,0.725,1.013,0.713,1.260,0.920,0.416,0.720,0.681,�k�k��,7.8,�L
2019/10/06,09:10,0.727,1.012,0.711,1.260,0.915,0.418,0.720,0.680,�k�k��,6.1,�L
2019/10/06,09:20,0.727,1.010,0.714,1.257,0.919,0.418,0.719,0.681,�k�k��,6.1,�L
2019/10/06,09:30,0.727,1.013,0.716,1.255,0.916,0.418,0.718,0.680,�k�k��,6.2,�L
2019/10/06,09:40,0.726,1.012,0.715,1.257,0.919,0.420,0.719,0.680,�k�k��,6.6,�L
2019/10/06,09:50,0.728,1.014,0.714,1.255,0.917,0.417,0.719,0.680,�k�k��,6.2,�L
2019/10/06,10:00,0.726,1.013,0.714,1.254,0.915,0.420,0.717,0.680,�k�k��,5.2,�L
2019/10/06,10:10,0.728,1.012,0.712,1.254,0.916,0.418,0.720,0.680,�k�k��,6.6,�L
2019/10/06,10:20,0.726,1.010,0.713,1.252,0.913,0.420,0.718,0.680,�k�k��,6.6,�L
2019/10/06,10:30,0.729,1.013,0.712,1.253,0.916,0.419,0.717,0.681,�k�k��,6.3,�L
2019/10/06,10:40,0.728,1.012,0.712,1.253,0.916,0.419,0.717,0.680,�k�k��,7.2,�L
2019/10/06,10:50,0.726,1.013,0.711,1.252,0.917,0.416,0.718,0.680,�k�k��,6.5,�L
2019/10/06,11:00,0.725,1.011,0.709,1.256,0.915,0.417,0.717,0.679,�k�k��,5.7,�L
2019/10/06,11:10,0.721,1.014,0.708,1.254,0.914,0.414,0.718,0.680,�k�k��,5.3,�L
2019/10/06,11:20,0.723,1.010,0.707,1.254,0.912,0.414,0.718,0.678,�k�k��,4.3,�L
2019/10/06,11:30,0.721,1.011,0.708,1.253,0.913,0.412,0.718,0.680,�k�k��,3.6,�L
2019/10/06,11:40,0.721,1.009,0.706,1.251,0.912,0.413,0.717,0.678,�k�k��,4.3,�L
2019/10/06,11:50,0.722,1.011,0.704,1.253,0.914,0.412,0.718,0.680,�k�k��,5.6,�L
2019/10/06,12:00,0.721,1.011,0.705,1.253,0.913,0.411,0.717,0.680,�k�k��,4.8,��
2019/10/06,12:10,0.722,1.012,0.704,1.252,0.915,0.411,0.715,0.681,�k�k��,5.1,��
2019/10/06,12:20,0.720,1.012,0.704,1.255,0.915,0.410,0.718,0.681,�k�k��,4.9,�L
2019/10/06,12:30,0.721,1.013,0.704,1.253,0.914,0.409,0.717,0.680,�k�k��,4.6,�L
2019/10/06,12:40,0.719,1.010,0.705,1.254,0.914,0.411,0.718,0.681,�k�k��,4.7,�L
2019/10/06,12:50,0.718,1.011,0.705,1.255,0.914,0.412,0.717,0.681,�k�k��,4.4,�L
2019/10/06,13:00,0.719,1.011,0.704,1.255,0.913,0.410,0.717,0.680,�k�k��,5.2,��
2019/10/06,13:10,0.719,1.011,0.703,1.254,0.913,0.409,0.717,0.680,�k�k��,5.5,��
2019/10/06,13:20,0.716,1.011,0.702,1.255,0.915,0.410,0.719,0.681,�k�k��,6.0,��
2019/10/06,13:30,0.717,1.012,0.702,1.255,0.913,0.407,0.720,0.681,�k,5.2,��
2019/10/06,13:40,0.718,1.012,0.702,1.256,0.914,0.409,0.717,0.679,�k,5.0,��
2019/10/06,13:50,0.719,1.012,0.700,1.258,0.913,0.407,0.720,0.682,�k,5.1,��
2019/10/06,14:00,0.720,1.011,0.702,1.255,0.914,0.410,0.720,0.681,�k,6.3,��
2019/10/06,14:10,0.720,1.012,0.703,1.258,0.914,0.409,0.719,0.680,�k�k��,5.5,��
2019/10/06,14:20,0.720,1.014,0.703,1.259,0.915,0.408,0.721,0.679,�k�k��,6.5,��
2019/10/06,14:30,0.718,1.013,0.703,1.258,0.915,0.409,0.720,0.680,�k,5.5,��
2019/10/06,14:40,0.720,1.013,0.702,1.258,0.915,0.409,0.721,0.682,�k,4.9,��
2019/10/06,14:50,0.720,1.014,0.704,1.257,0.917,0.408,0.721,0.680,�k,5.5,��
2019/10/06,15:00,0.717,1.014,0.704,1.258,0.916,0.408,0.722,0.680,�k,4.9,��
2019/10/06,15:10,0.717,1.014,0.703,1.257,0.915,0.409,0.720,0.681,�k�k��,5.4,��
2019/10/06,15:20,0.719,1.014,0.703,1.258,0.918,0.409,0.722,0.680,�k�k��,6.4,��
2019/10/06,15:30,0.719,1.016,0.705,1.260,0.917,0.408,0.722,0.681,�k�k��,7.0,��
2019/10/06,15:40,0.720,1.015,0.703,1.262,0.917,0.409,0.721,0.681,�k�k��,6.8,��
2019/10/06,15:50,0.719,1.016,0.703,1.259,0.917,0.409,0.722,0.683,�k�k��,7.4,��
2019/10/06,16:00,0.719,1.016,0.703,1.262,0.916,0.408,0.721,0.682,�k�k��,7.7,��
2019/10/06,16:10,0.720,1.016,0.704,1.263,0.917,0.408,0.721,0.683,�k�k��,7.9,��
2019/10/06,16:20,0.720,1.017,0.705,1.261,0.919,0.408,0.722,0.683,�k�k��,7.7,��
2019/10/06,16:30,0.719,1.017,0.705,1.262,0.919,0.408,0.721,0.682,�k�k��,8.3,��
2019/10/06,16:40,0.720,1.019,0.703,1.262,0.917,0.411,0.722,0.682,�k�k��,8.7,��
2019/10/06,16:50,0.722,1.015,0.705,1.264,0.918,0.408,0.719,0.682,�k�k��,8.8,��
2019/10/06,17:00,0.722,1.019,0.705,1.263,0.919,0.409,0.720,0.682,�k�k��,9.7,��
2019/10/06,17:10,0.722,1.016,0.705,1.262,0.919,0.408,0.720,0.682,�k�k��,8.2,��
2019/10/06,17:20,0.723,1.018,0.704,1.262,0.916,0.409,0.719,0.682,�k�k��,9.0,��
2019/10/06,17:30,0.719,1.018,0.705,1.261,0.919,0.408,0.719,0.682,�k�k��,9.1,��
2019/10/06,17:40,0.720,1.019,0.706,1.262,0.919,0.408,0.720,0.682,�k�k��,9.3,�L
2019/10/06,17:50,0.721,1.019,0.708,1.262,0.919,0.411,0.720,0.682,�k�k��,10.8,��
2019/10/06,18:00,0.721,1.019,0.707,1.262,0.920,0.409,0.718,0.685,�k�k��,9.7,��
2019/10/06,18:10,0.723,1.022,0.707,1.264,0.921,0.409,0.719,0.681,�k��,8.4,��
2019/10/06,18:20,0.723,1.020,0.707,1.265,0.919,0.409,0.721,0.682,�k��,9.4,��
2019/10/06,18:30,0.721,1.021,0.707,1.263,0.921,0.409,0.720,0.683,�k��,9.5,��
2019/10/06,18:40,0.721,1.022,0.707,1.263,0.919,0.409,0.719,0.683,�k�k��,10.2,��
2019/10/06,18:50,0.722,1.019,0.708,1.264,0.922,0.412,0.720,0.683,�k�k��,9.6,��
2019/10/06,19:00,0.723,1.020,0.708,1.263,0.920,0.412,0.721,0.683,�k�k��,8.9,��
2019/10/06,19:10,0.722,1.021,0.710,1.265,0.921,0.408,0.721,0.683,�k�k��,9.7,��
2019/10/06,19:20,0.724,1.021,0.709,1.263,0.922,0.410,0.719,0.685,�k�k��,8.2,�L
2019/10/06,19:30,0.722,1.019,0.709,1.265,0.922,0.410,0.720,0.684,�k��,8.8,�L
2019/10/06,19:40,0.721,1.016,0.706,1.263,0.919,0.412,0.719,0.685,�k�k��,10.3,�L
2019/10/06,19:50,0.722,1.013,0.707,1.263,0.918,0.409,0.719,0.683,�k��,8.8,�L
2019/10/06,20:00,0.722,1.016,0.707,1.262,0.919,0.410,0.720,0.683,�k�k��,9.4,��
2019/10/06,20:10,0.724,1.016,0.706,1.263,0.919,0.409,0.720,0.683,�k�k��,9.3,��
2019/10/06,20:20,0.723,1.016,0.706,1.264,0.918,0.410,0.721,0.681,�k�k��,8.3,��
2019/10/06,20:30,0.723,1.013,0.706,1.265,0.917,0.411,0.720,0.681,�k�k��,10.5,��
2019/10/06,20:40,0.723,1.016,0.706,1.262,0.916,0.410,0.720,0.683,�k�k��,8.8,��
2019/10/06,20:50,0.723,1.017,0.708,1.262,0.917,0.411,0.719,0.683,�k��,8.4,��
2019/10/06,21:00,0.721,1.015,0.706,1.263,0.916,0.411,0.720,0.684,�k��,9.3,��
2019/10/06,21:10,0.722,1.016,0.707,1.265,0.918,0.411,0.718,0.681,�k��,8.4,��
2019/10/06,21:20,0.723,1.017,0.708,1.262,0.917,0.409,0.719,0.681,�k�k��,8.9,��
2019/10/06,21:30,0.722,1.015,0.705,1.262,0.919,0.412,0.720,0.684,�k�k��,8.4,��
2019/10/06,21:40,0.722,1.016,0.707,1.264,0.919,0.411,0.721,0.684,�k��,8.6,��
2019/10/06,21:50,0.722,1.016,0.708,1.264,0.920,0.412,0.720,0.683,�k�k��,9.4,��
2019/10/06,22:00,0.722,1.016,0.706,1.264,0.919,0.410,0.720,0.683,�k�k��,9.0,��
2019/10/06,22:10,0.723,1.019,0.707,1.266,0.920,0.410,0.719,0.684,�k�k��,8.6,��
2019/10/06,22:20,0.724,1.018,0.706,1.264,0.920,0.411,0.719,0.685,�k�k��,7.8,��
2019/10/06,22:30,0.723,1.019,0.705,1.265,0.921,0.409,0.719,0.687,�k�k��,8.9,��
2019/10/06,22:40,0.722,1.021,0.706,1.265,0.921,0.412,0.722,0.685,�k�k��,10.0,��
2019/10/06,22:50,0.722,1.021,0.707,1.264,0.921,0.410,0.720,0.685,�k�k��,9.8,��
2019/10/06,23:00,0.723,1.020,0.706,1.265,0.919,0.410,0.722,0.684,�k�k��,10.0,��
2019/10/06,23:10,0.723,1.020,0.707,1.264,0.920,0.410,0.720,0.685,�k�k��,9.3,��
2019/10/06,23:20,0.722,1.019,0.706,1.266,0.921,0.410,0.721,0.685,�k�k��,9.1,��
2019/10/06,23:30,0.721,1.019,0.706,1.264,0.922,0.411,0.720,0.686,�k�k��,7.9,��
2019/10/06,23:40,0.724,1.020,0.704,1.265,0.920,0.411,0.721,0.686,�k�k��,8.1,��
2019/10/06,23:50,0.722,1.021,0.706,1.264,0.921,0.412,0.720,0.684,�k�k��,6.8,��
